User: anonymous   Login
Location: DaltonSkyGazer Observatory
(42.4858°N, 73.1565°W)
Time: 03:46:20
(UTC-04:00)
Language:

Helios 1B - Orbit

View from above orbital plane
View from above orbital plane
View from above satellite
View from above satellite

Ground track
Ground track

The orbit data is extracted from the following two-line orbital elements,

1 25977U 99064A   14297.17762554  .00002845  00000-0  37776-3 0  4030
2 25977 098.1571 016.7878 0001949 137.0273 277.6977 14.80605599800815
Epoch (UTC): 24 October 2014 04:15:46
Eccentricity: 0.0001949
inclination: 98.1571°
perigee height: 626 km
apogee height: 629 km
right ascension of ascending node: 16.7878°
argument of perigee: 137.0273°
revolutions per day: 14.80605599
mean anomaly at epoch: 277.6977°
orbit number at epoch: 80081

The dashed part of the orbit path shows where the satellite is in the earth's shadow,  

DLR